QPF
0.00 0.00 0.00 0.00 0.00 0.00 0.00 0.00 0.00 0.00 0.00 0.00 0.00 0.00 0.00 0.00 0.00 0.00 0.00 0.00 0.00 0.00 0.00 0.00 0.00 0.00 0.00 0.00 0.00 0.00 0.00 0.00 0.00 0.00 0.00 0.00 0.00 0.00 0.00 0.00 0.00 0.00 0.00 0.00 0.00 0.00 0.00
0.00 0.01 0.00 0.00 0.00 0.00 0.00 0.00 0.00 0.00 0.00 0.00 0.00 0.00 0.00 0.00 0.00 0.00 0.00 0.00 0.00 0.00 0.00 0.00 0.00 0.00 0.00 0.00 0.00 0.00 0.00 0.00 0.00 0.00 0.00 0.00 0.00 0.00 0.00 0.00 0.00 0.00 0.00 0.00 0.00 0.00 0.00
0.01 0.00 0.00 0.00 0.00 0.00 0.00 0.00 0.00 0.00 0.00 0.00 0.00 0.00 0.00 0.00 0.00 0.00 0.00 0.00 0.00 0.00 0.00 0.00 0.00 0.00 0.00 0.00 0.00 0.00 0.00 0.00 0.00 0.00 0.00 0.00 0.00 0.00 0.00 0.00 0.00 0.00 0.00 0.00 0.00 0.00 0.00
0.08 0.01 0.00 0.00 0.00 0.00 0.00 0.00 0.00 0.00 0.00 0.00 0.00 0.00 0.00 0.00 0.00 0.00 0.00 0.00 0.00 0.00 0.00 0.00 0.00 0.00 0.00 0.00 0.00 0.00 0.00 0.00 0.00 0.00 0.00 0.00 0.00 0.00 0.00 0.00 0.00 0.00 0.00 0.00 0.00 0.00 0.00
0.12 0.08 0.01 0.00 0.00 0.00 0.00 0.00 0.00 0.00 0.00 0.00 0.00 0.00 0.00 0.00 0.00 0.00 0.00 0.00 0.00 0.00 0.00 0.00 0.00 0.00 0.00 0.00 0.00 0.00 0.00 0.00 0.00 0.00 0.00 0.00 0.00 0.00 0.00 0.00 0.00 0.00 0.00 0.00 0.00 0.00 0.00
0.05 0.12 0.05 0.01 0.00 0.01 0.00 0.00 0.00 0.00 0.00 0.00 0.00 0.00 0.00 0.00 0.00 0.00 0.00 0.00 0.00 0.00 0.00 0.00 0.00 0.00 0.00 0.00 0.00 0.00 0.00 0.00 0.00 0.00 0.00 0.00 0.00 0.00 0.00 0.00 0.00 0.00 0.00 0.00 0.00 0.00 0.00
0.01 0.09 0.10 0.02 0.00 0.01 0.01 0.00 0.00 0.00 0.00 0.00 0.00 0.00 0.00 0.00 0.00 0.00 0.00 0.00 0.00 0.00 0.00 0.00 0.00 0.00 0.00 0.00 0.00 0.00 0.00 0.00 0.00 0.00 0.00 0.00 0.00 0.00 0.00 0.00 0.00 0.00 0.00 0.00 0.00 0.00 0.00
0.00 0.02 0.16 0.08 0.00 0.00 0.02 0.00 0.00 0.00 0.00 0.00 0.00 0.00 0.00 0.00 0.00 0.00 0.00 0.00 0.00 0.00 0.00 0.00 0.00 0.00 0.00 0.00 0.00 0.00 0.00 0.00 0.00 0.00 0.00 0.00 0.00 0.00 0.00 0.00 0.00 0.00 0.00 0.00 0.00 0.00 0.00
0.01 0.01 0.07 0.12 0.04 0.00 0.01 0.01 0.00 0.00 0.00 0.00 0.00 0.00 0.00 0.00 0.00 0.00 0.00 0.00 0.00 0.00 0.00 0.00 0.00 0.00 0.00 0.00 0.00 0.00 0.00 0.00 0.00 0.00 0.00 0.00 0.00 0.00 0.00 0.00 0.00 0.00 0.00 0.00 0.00 0.00 0.00
0.00 0.01 0.06 0.12 0.06 0.01 0.01 0.02 0.00 0.00 0.00 0.00 0.00 0.00 0.00 0.00 0.00 0.00 0.00 0.00 0.00 0.00 0.00 0.00 0.00 0.00 0.00 0.00 0.00 0.00 0.00 0.00 0.00 0.00 0.00 0.00 0.00 0.00 0.00 0.00 0.00 0.00 0.00 0.00 0.00 0.00 0.00
0.00 0.00 0.02 0.10 0.09 0.04 0.01 0.02 0.01 0.00 0.00 0.00 0.00 0.00 0.00 0.00 0.00 0.00 0.00 0.00 0.00 0.00 0.00 0.00 0.00 0.00 0.00 0.00 0.00 0.00 0.00 0.00 0.00 0.00 0.00 0.00 0.00 0.00 0.00 0.00 0.00 0.00 0.00 0.00 0.00 0.00 0.00
0.00 0.00 0.01 0.05 0.07 0.08 0.04 0.02 0.02 0.00 0.00 0.00 0.00 0.00 0.00 0.00 0.00 0.00 0.00 0.00 0.00 0.00 0.00 0.00 0.00 0.00 0.00 0.00 0.00 0.00 0.00 0.00 0.00 0.00 0.00 0.00 0.00 0.00 0.00 0.00 0.00 0.00 0.00 0.00 0.00 0.00 0.00
0.00 0.00 0.01 0.02 0.07 0.06 0.09 0.05 0.04 0.01 0.00 0.00 0.00 0.00 0.00 0.00 0.00 0.00 0.00 0.00 0.00 0.00 0.00 0.00 0.00 0.00 0.00 0.00 0.00 0.00 0.00 0.00 0.00 0.00 0.00 0.00 0.00 0.00 0.00 0.00 0.00 0.00 0.00 0.00 0.00 0.00 0.00
0.00 0.00 0.01 0.01 0.05 0.08 0.08 0.08 0.06 0.05 0.00 0.00 0.00 0.00 0.00 0.00 0.00 0.00 0.00 0.00 0.00 0.00 0.00 0.00 0.00 0.00 0.00 0.00 0.00 0.00 0.00 0.00 0.00 0.00 0.00 0.00 0.00 0.00 0.00 0.00 0.00 0.00 0.00 0.00 0.00 0.00 0.00
0.00 0.00 0.01 0.01 0.04 0.08 0.16 0.08 0.08 0.08 0.01 0.00 0.00 0.00 0.00 0.00 0.00 0.00 0.00 0.00 0.00 0.00 0.00 0.00 0.00 0.00 0.00 0.00 0.00 0.00 0.00 0.00 0.00 0.00 0.00 0.00 0.00 0.00 0.00 0.00 0.00 0.00 0.00 0.00 0.00 0.00 0.00
0.00 0.00 0.00 0.01 0.02 0.12 0.12 0.27 0.14 0.12 0.02 0.00 0.00 0.00 0.00 0.00 0.00 0.00 0.00 0.00 0.00 0.00 0.00 0.00 0.00 0.00 0.00 0.00 0.00 0.00 0.00 0.00 0.00 0.00 0.00 0.00 0.00 0.00 0.00 0.00 0.00 0.00 0.00 0.00 0.00 0.00 0.00
0.00 0.00 0.01 0.01 0.02 0.08 0.14 0.25 0.36 0.21 0.02 0.00 0.00 0.00 0.00 0.00 0.00 0.00 0.00 0.00 0.00 0.00 0.00 0.00 0.00 0.00 0.00 0.00 0.00 0.00 0.00 0.00 0.00 0.00 0.00 0.00 0.00 0.00 0.00 0.00 0.00 0.00 0.00 0.00 0.00 0.00 0.00
0.00 0.00 0.00 0.00 0.02 0.05 0.13 0.18 0.52 0.33 0.03 0.00 0.00 0.00 0.00 0.00 0.00 0.00 0.00 0.00 0.00 0.00 0.00 0.00 0.00 0.00 0.00 0.00 0.00 0.00 0.00 0.00 0.00 0.00 0.00 0.00 0.00 0.00 0.00 0.00 0.00 0.00 0.00 0.00 0.00 0.00 0.00
0.00 0.01 0.01 0.00 0.03 0.06 0.09 0.27 0.43 0.31 0.05 0.00 0.00 0.00 0.00 0.00 0.00 0.00 0.00 0.00 0.00 0.00 0.00 0.00 0.00 0.00 0.00 0.00 0.00 0.00 0.00 0.00 0.00 0.00 0.00 0.00 0.00 0.00 0.00 0.00 0.00 0.00 0.00 0.00 0.00 0.00 0.00
0.01 0.01 0.01 0.00 0.04 0.05 0.07 0.23 0.51 0.18 0.02 0.00 0.00 0.00 0.00 0.00 0.00 0.00 0.00 0.00 0.00 0.00 0.00 0.00 0.00 0.00 0.00 0.00 0.00 0.00 0.00 0.00 0.00 0.00 0.00 0.00 0.00 0.00 0.00 0.00 0.00 0.00 0.00 0.00 0.00 0.00 0.00
0.00 0.00 0.01 0.01 0.04 0.06 0.08 0.18 0.44 0.10 0.02 0.00 0.00 0.00 0.00 0.00 0.00 0.00 0.00 0.00 0.00 0.00 0.00 0.00 0.00 0.00 0.00 0.00 0.00 0.00 0.00 0.00 0.00 0.00 0.00 0.00 0.00 0.00 0.00 0.00 0.00 0.00 0.00 0.00 0.00 0.00 0.00
0.01 0.01 0.00 0.00 0.04 0.09 0.08 0.16 0.32 0.10 0.03 0.00 0.00 0.00 0.00 0.00 0.00 0.00 0.00 0.00 0.00 0.00 0.00 0.00 0.00 0.00 0.00 0.00 0.00 0.00 0.00 0.00 0.00 0.00 0.00 0.00 0.00 0.00 0.00 0.00 0.00 0.00 0.00 0.00 0.00 0.00 0.00
0.03 0.01 0.01 0.01 0.03 0.10 0.06 0.16 0.24 0.13 0.03 0.00 0.00 0.00 0.00 0.00 0.00 0.00 0.00 0.00 0.00 0.00 0.00 0.00 0.00 0.00 0.00 0.00 0.00 0.00 0.00 0.00 0.00 0.00 0.00 0.00 0.00 0.00 0.00 0.00 0.00 0.00 0.00 0.00 0.00 0.00 0.00
0.07 0.03 0.01 0.01 0.03 0.07 0.08 0.18 0.23 0.14 0.02 0.00 0.00 0.00 0.00 0.00 0.00 0.00 0.00 0.00 0.00 0.00 0.00 0.00 0.00 0.00 0.00 0.00 0.00 0.00 0.00 0.00 0.00 0.00 0.00 0.00 0.00 0.00 0.00 0.00 0.00 0.00 0.00 0.00 0.00 0.00 0.00
0.07 0.03 0.02 0.02 0.03 0.05 0.08 0.15 0.27 0.06 0.01 0.00 0.00 0.00 0.00 0.00 0.00 0.00 0.00 0.00 0.00 0.00 0.00 0.00 0.00 0.00 0.00 0.00 0.00 0.00 0.00 0.00 0.00 0.00 0.00 0.00 0.00 0.00 0.00 0.00 0.00 0.00 0.00 0.00 0.00 0.00 0.00
0.05 0.02 0.02 0.03 0.06 0.03 0.07 0.13 0.25 0.07 0.02 0.01 0.00 0.00 0.00 0.00 0.00 0.00 0.00 0.00 0.00 0.00 0.00 0.00 0.00 0.00 0.00 0.00 0.00 0.00 0.00 0.00 0.00 0.00 0.00 0.00 0.00 0.00 0.00 0.00 0.00 0.00 0.00 0.00 0.00 0.00 0.00
0.06 0.01 0.01 0.05 0.08 0.04 0.05 0.14 0.22 0.10 0.02 0.01 0.00 0.00 0.00 0.01 0.00 0.00 0.00 0.00 0.00 0.00 0.00 0.00 0.00 0.00 0.00 0.00 0.00 0.00 0.00 0.00 0.00 0.00 0.00 0.00 0.00 0.00 0.00 0.00 0.00 0.00 0.00 0.00 0.00 0.00 0.00
0.06 0.00 0.01 0.06 0.09 0.05 0.04 0.14 0.20 0.13 0.02 0.00 0.00 0.00 0.00 0.00 0.00 0.00 0.00 0.00 0.00 0.00 0.00 0.00 0.00 0.00 0.00 0.00 0.00 0.00 0.00 0.00 0.00 0.00 0.00 0.00 0.00 0.00 0.00 0.00 0.00 0.00 0.00 0.00 0.00 0.00 0.00
0.04 0.01 0.02 0.06 0.09 0.10 0.06 0.13 0.16 0.13 0.03 0.00 0.02 0.01 0.00 0.00 0.00 0.00 0.00 0.00 0.00 0.00 0.00 0.00 0.00 0.00 0.00 0.00 0.00 0.00 0.00 0.00 0.00 0.00 0.00 0.00 0.00 0.00 0.00 0.00 0.00 0.00 0.00 0.00 0.00 0.00 0.00
MSLP
1020.24 1020.64 1021.04 1021.48 1021.94 1022.24 1022.48 1022.98 1022.98 1023.15 1023.37 1023.42 1023.57 1023.36 1023.13 1022.83 1022.42 1021.97 1021.74 1021.52 1020.83 1020.46 1020.01 1019.25 1018.88 1018.30 1017.10 1016.78 1017.64 1017.53 1017.33 1016.32 1015.23 1014.52 1014.35 1014.50 1014.93 1016.08 1017.13 1019.24 1020.13 1021.59 1022.49 1023.59 1024.37 1024.99 1025.67
1020.02 1020.13 1020.61 1021.11 1021.60 1021.93 1022.10 1022.79 1023.04 1022.94 1023.13 1023.21 1023.37 1023.35 1023.25 1022.86 1022.46 1022.03 1021.60 1021.33 1020.77 1020.33 1020.00 1019.32 1018.83 1018.15 1017.19 1017.36 1018.48 1017.86 1017.27 1016.02 1015.12 1014.81 1015.36 1015.24 1016.20 1017.55 1019.07 1020.08 1020.74 1022.96 1023.56 1024.51 1025.38 1025.92 1026.46
1019.92 1019.71 1020.27 1020.75 1021.20 1021.50 1022.00 1022.39 1022.81 1022.94 1023.03 1022.89 1023.27 1023.23 1023.29 1022.91 1022.45 1022.11 1021.54 1021.23 1020.70 1020.17 1019.93 1019.55 1019.01 1018.12 1017.68 1019.03 1018.96 1018.15 1017.53 1016.65 1015.51 1015.12 1015.97 1016.99 1017.05 1017.24 1020.26 1021.38 1023.03 1023.27 1023.16 1024.64 1025.41 1025.74 1026.35
1020.24 1019.95 1019.67 1020.08 1020.65 1021.22 1021.59 1022.06 1022.42 1022.72 1022.96 1022.75 1023.04 1023.09 1023.21 1022.97 1022.47 1022.02 1021.44 1021.17 1020.58 1019.98 1019.73 1019.55 1019.27 1018.03 1018.55 1019.16 1018.94 1018.63 1017.87 1017.60 1017.13 1016.95 1016.95 1017.93 1018.17 1018.47 1020.02 1021.95 1022.70 1022.49 1022.86 1023.52 1025.66 1025.99 1026.59
1019.91 1019.58 1019.36 1019.55 1020.03 1020.88 1021.52 1021.93 1022.03 1022.61 1022.61 1022.95 1022.64 1023.09 1022.99 1022.99 1022.40 1021.88 1021.41 1021.01 1020.51 1019.77 1019.47 1019.33 1018.76 1017.91 1018.71 1018.90 1018.98 1019.21 1018.82 1018.35 1018.13 1017.80 1018.12 1018.70 1018.82 1019.81 1021.31 1021.25 1021.94 1022.21 1021.70 1023.16 1025.06 1025.84 1025.79
1019.74 1019.61 1019.39 1019.12 1019.69 1020.32 1021.01 1021.63 1021.75 1022.41 1022.23 1022.83 1022.55 1022.85 1022.91 1022.93 1022.36 1021.82 1021.31 1020.88 1020.15 1019.33 1019.22 1019.08 1019.02 1018.58 1019.31 1019.30 1019.70 1019.92 1019.81 1019.47 1018.57 1018.33 1018.21 1018.81 1019.45 1020.11 1020.39 1020.14 1019.64 1020.85 1021.80 1023.26 1024.14 1025.60 1025.54
1019.51 1019.49 1019.22 1018.83 1019.00 1019.71 1020.48 1021.12 1021.71 1021.93 1022.14 1022.41 1022.64 1022.54 1022.79 1022.82 1022.40 1022.03 1020.76 1020.21 1020.45 1020.02 1019.90 1020.32 1019.95 1019.45 1019.61 1019.84 1020.03 1019.96 1020.15 1019.50 1019.20 1018.77 1018.51 1019.69 1019.32 1020.04 1020.86 1021.34 1020.81 1021.06 1021.90 1023.20 1024.61 1025.67 1025.13
1019.16 1019.02 1019.02 1018.93 1018.36 1019.11 1019.94 1020.60 1021.14 1021.59 1022.03 1022.18 1022.66 1022.26 1022.62 1022.75 1022.56 1022.08 1021.15 1020.19 1020.60 1020.58 1020.59 1020.70 1020.58 1020.03 1020.26 1019.97 1019.81 1020.21 1019.97 1019.94 1019.73 1019.50 1019.78 1019.89 1020.80 1022.15 1022.24 1021.62 1021.19 1021.49 1022.20 1023.49 1024.88 1025.42 1025.18
1018.78 1018.72 1018.74 1018.57 1018.13 1018.65 1019.47 1019.94 1020.77 1021.40 1021.88 1022.10 1022.36 1022.14 1022.65 1022.75 1022.56 1021.94 1020.83 1020.89 1020.88 1020.90 1020.58 1021.06 1021.08 1020.37 1020.41 1020.14 1020.54 1020.89 1020.71 1021.07 1020.75 1020.55 1020.33 1020.48 1022.45 1023.05 1022.54 1022.20 1021.96 1022.35 1022.38 1023.39 1023.73 1025.25 1025.46
1018.41 1018.47 1018.46 1018.39 1018.09 1018.04 1018.78 1019.57 1020.27 1020.89 1021.54 1021.85 1022.28 1022.25 1022.37 1022.79 1022.90 1021.78 1021.22 1021.29 1020.97 1021.37 1021.15 1021.28 1021.12 1020.92 1020.64 1020.51 1021.20 1021.84 1021.87 1021.75 1021.97 1021.93 1022.18 1023.08 1023.80 1023.38 1022.93 1023.04 1022.73 1022.97 1023.88 1023.98 1024.26 1024.10 1023.83
1017.82 1017.94 1017.98 1017.94 1018.01 1017.56 1018.07 1019.05 1019.75 1020.50 1021.03 1021.68 1022.14 1022.05 1022.44 1022.98 1022.70 1021.62 1021.41 1021.44 1021.22 1021.29 1021.62 1021.78 1021.26 1021.27 1020.81 1020.66 1021.32 1021.81 1022.14 1021.64 1022.38 1023.02 1023.18 1024.84 1024.42 1023.84 1023.70 1024.23 1024.08 1024.23 1024.48 1024.15 1024.29 1024.14 1024.23
1017.28 1017.39 1017.52 1017.58 1017.67 1017.26 1017.49 1018.41 1019.19 1020.07 1020.63 1021.43 1021.45 1022.08 1022.36 1022.57 1022.41 1021.71 1021.59 1021.41 1021.16 1021.67 1021.58 1021.71 1021.37 1021.12 1020.79 1021.08 1021.68 1021.84 1022.03 1022.31 1023.65 1023.55 1024.05 1025.13 1026.07 1025.49 1025.37 1025.25 1024.83 1024.93 1024.77 1024.76 1024.56 1024.09 1023.49
1016.64 1016.86 1017.00 1017.04 1017.12 1016.92 1016.84 1017.79 1018.70 1019.73 1020.45 1021.11 1021.52 1021.54 1022.49 1022.07 1021.79 1022.03 1021.87 1021.25 1021.77 1021.84 1021.98 1021.84 1021.48 1021.45 1021.11 1021.25 1021.86 1021.87 1022.06 1022.44 1022.92 1023.63 1024.38 1025.42 1026.13 1026.57 1026.20 1025.72 1025.86 1025.17 1024.74 1024.25 1023.98 1023.58 1022.91
1015.90 1016.15 1016.40 1016.43 1016.47 1016.53 1016.68 1017.00 1018.13 1019.26 1020.27 1021.08 1021.39 1022.40 1022.22 1021.87 1021.94 1022.24 1022.29 1021.35 1021.85 1021.46 1021.35 1021.82 1021.71 1021.63 1021.32 1021.52 1022.13 1022.36 1022.37 1022.51 1023.44 1023.20 1024.16 1024.78 1026.24 1026.72 1027.11 1026.50 1025.47 1025.31 1025.16 1024.50 1023.53 1022.81 1022.62
1015.11 1015.32 1015.53 1015.75 1015.97 1016.04 1016.30 1016.70 1017.70 1018.82 1020.02 1020.82 1021.42 1022.01 1021.56 1021.34 1021.60 1022.44 1022.00 1021.63 1020.94 1020.98 1020.81 1021.39 1021.75 1021.61 1021.75 1021.87 1021.98 1022.31 1022.54 1022.59 1023.06 1023.50 1023.86 1024.73 1026.23 1027.37 1027.60 1027.14 1026.81 1026.45 1026.15 1026.25 1025.14 1025.02 1023.53
1014.28 1014.56 1014.77 1015.09 1015.44 1015.65 1015.74 1016.28 1017.05 1018.33 1019.77 1020.19 1020.41 1021.16 1021.30 1022.00 1022.23 1021.87 1021.79 1021.42 1020.87 1021.17 1020.97 1021.19 1021.09 1021.41 1021.10 1021.57 1021.81 1022.10 1022.51 1022.97 1023.54 1024.06 1024.31 1024.97 1026.21 1027.53 1027.88 1027.74 1027.62 1027.19 1027.23 1026.99 1026.36 1025.58 1023.87
1013.46 1013.79 1014.07 1014.41 1014.79 1015.24 1015.32 1015.67 1016.49 1017.74 1019.21 1019.43 1019.74 1020.46 1021.72 1021.89 1021.73 1021.55 1021.50 1020.75 1020.71 1021.38 1021.19 1020.98 1021.29 1021.47 1021.11 1021.38 1021.46 1021.86 1022.26 1023.56 1023.79 1024.48 1024.53 1024.92 1025.63 1027.98 1028.22 1027.56 1026.97 1027.97 1027.58 1027.91 1027.23 1026.31 1024.62
1012.73 1013.08 1013.34 1013.68 1014.03 1014.40 1014.71 1015.19 1015.86 1017.22 1018.02 1019.57 1019.48 1020.51 1021.72 1021.64 1021.10 1021.37 1020.97 1020.61 1021.02 1020.76 1021.09 1021.14 1021.10 1021.37 1021.36 1021.48 1021.49 1022.12 1022.61 1023.53 1024.13 1024.30 1024.43 1025.10 1025.67 1026.76 1027.31 1028.36 1028.48 1028.07 1027.82 1027.75 1027.81 1027.26 1025.80
1012.02 1012.34 1012.60 1013.08 1013.44 1013.83 1013.95 1014.65 1015.60 1016.53 1017.41 1017.85 1019.20 1020.66 1021.71 1021.39 1020.23 1020.50 1020.97 1020.64 1020.66 1020.41 1020.78 1021.18 1021.10 1021.43 1021.96 1021.52 1022.00 1022.61 1023.29 1024.63 1024.78 1024.62 1024.48 1024.83 1025.40 1026.67 1027.60 1028.83 1029.04 1028.56 1028.61 1028.98 1028.77 1027.50 1025.67
1011.34 1011.55 1011.81 1012.12 1012.59 1013.07 1013.48 1013.96 1015.04 1015.83 1016.83 1017.19 1018.56 1020.62 1021.09 1020.77 1019.95 1019.74 1020.05 1020.26 1020.38 1020.14 1020.48 1020.75 1021.47 1021.66 1022.07 1022.22 1022.47 1023.11 1023.93 1025.07 1025.38 1025.27 1025.57 1025.03 1025.14 1025.36 1026.15 1026.69 1027.41 1028.50 1028.75 1029.15 1028.69 1027.64 1025.13
1010.58 1010.73 1010.90 1011.18 1011.67 1012.54 1012.86 1013.32 1013.88 1015.42 1016.08 1015.74 1018.28 1018.89 1018.46 1019.93 1020.05 1019.34 1019.52 1019.51 1019.57 1020.11 1020.26 1020.47 1021.61 1021.59 1021.55 1022.41 1022.64 1023.17 1024.13 1025.09 1025.59 1026.01 1025.92 1025.53 1025.62 1026.27 1026.69 1026.83 1027.28 1027.29 1027.63 1028.05 1027.80 1026.26 1025.00
1009.24 1009.59 1009.99 1010.55 1010.93 1011.75 1012.07 1012.78 1013.93 1014.95 1016.34 1015.99 1017.33 1017.13 1018.22 1018.49 1019.13 1019.47 1019.30 1019.23 1019.26 1019.67 1019.91 1020.35 1020.64 1021.20 1021.89 1022.24 1021.98 1022.28 1023.16 1024.07 1024.28 1026.01 1025.96 1026.11 1026.37 1026.57 1026.83 1027.21 1027.28 1026.93 1026.78 1026.83 1026.42 1025.77 1024.80
1007.82 1008.36 1009.16 1009.78 1010.34 1011.02 1011.19 1012.23 1013.52 1014.76 1015.83 1015.48 1016.06 1016.04 1016.30 1017.83 1018.60 1018.84 1018.35 1018.35 1018.71 1019.35 1020.27 1020.23 1020.56 1021.42 1022.57 1022.65 1022.62 1022.44 1023.31 1023.55 1023.90 1024.90 1025.65 1025.90 1026.81 1027.11 1026.87 1026.93 1027.04 1026.36 1024.61 1024.92 1024.72 1024.38 1024.34
1007.17 1007.14 1008.15 1009.05 1009.60 1010.37 1010.96 1011.45 1012.92 1014.18 1014.87 1014.26 1014.68 1014.46 1016.06 1017.72 1017.89 1017.61 1018.08 1018.61 1018.79 1019.27 1020.11 1020.98 1021.22 1021.79 1023.42 1023.38 1023.32 1023.91 1024.59 1024.59 1025.03 1025.62 1025.66 1026.07 1026.73 1027.31 1027.33 1026.90 1026.09 1024.21 1024.48 1024.00 1024.05 1024.01 1024.05
1006.17 1006.82 1007.45 1007.85 1008.84 1009.53 1010.59 1011.25 1012.57 1013.87 1014.76 1014.53 1014.21 1013.96 1015.57 1017.27 1017.64 1017.98 1018.43 1018.54 1019.15 1020.13 1020.88 1021.48 1022.16 1022.13 1022.88 1022.91 1023.83 1024.80 1025.34 1025.29 1025.79 1026.20 1026.17 1026.33 1026.63 1027.35 1027.13 1026.15 1024.35 1023.69 1024.45 1024.52 1024.02 1023.21 1023.58
1005.89 1006.28 1006.85 1007.56 1008.09 1008.70 1009.72 1010.87 1012.11 1013.32 1014.17 1015.00 1014.81 1014.95 1015.59 1016.96 1017.31 1017.45 1017.95 1018.65 1019.18 1020.05 1021.71 1022.62 1023.08 1023.26 1023.38 1023.44 1023.95 1024.39 1024.89 1025.06 1026.02 1026.51 1026.90 1026.79 1026.70 1026.68 1027.02 1025.85 1024.31 1023.79 1024.24 1024.54 1024.46 1023.91 1024.13
1005.60 1005.88 1006.34 1007.07 1007.61 1008.17 1009.11 1010.37 1011.13 1013.14 1014.79 1014.83 1015.68 1015.64 1015.72 1017.34 1017.70 1017.81 1017.42 1017.73 1018.79 1019.49 1020.90 1022.49 1023.38 1023.91 1023.78 1023.54 1024.07 1024.35 1024.68 1024.88 1025.36 1025.70 1026.54 1026.78 1027.00 1026.78 1026.55 1025.63 1024.19 1024.10 1024.54 1024.95 1024.98 1025.34 1025.05
1005.03 1005.47 1005.91 1006.68 1007.07 1007.54 1008.40 1009.99 1011.55 1013.11 1014.28 1014.89 1016.18 1015.67 1015.68 1017.94 1019.40 1018.88 1018.26 1018.28 1019.26 1019.38 1020.32 1022.09 1022.86 1023.44 1023.83 1023.62 1023.75 1024.29 1024.45 1024.61 1024.89 1024.84 1025.19 1025.33 1026.04 1026.46 1026.52 1026.16 1025.02 1024.64 1025.27 1025.39 1025.59 1025.85 1025.95
1004.85 1005.03 1005.57 1006.10 1006.05 1006.87 1008.12 1009.60 1011.34 1013.04 1014.24 1014.30 1015.70 1015.78 1016.14 1018.25 1020.24 1019.94 1020.05 1020.13 1019.96 1019.91 1020.23 1021.54 1021.19 1021.56 1021.87 1022.53 1023.54 1024.25 1024.41 1024.89 1024.54 1024.27 1024.72 1024.82 1024.71 1025.02 1025.15 1024.87 1025.31 1025.57 1025.79 1026.30 1026.50 1026.43 1026.95
Thickness
5632 5631 5632 5632 5632 5633 5633 5631 5634 5638 5645 5650 5654 5662 5669 5675 5680 5686 5690 5695 5701 5706 5711 5716 5718 5719 5726 5711 5703 5715 5719 5729 5739 5746 5741 5735 5726 5716 5701 5691 5690 5674 5673 5669 5666 5663 5659
5623 5628 5629 5630 5630 5629 5630 5627 5628 5633 5637 5644 5649 5656 5662 5670 5677 5681 5688 5693 5700 5704 5710 5715 5719 5722 5721 5699 5710 5714 5719 5732 5740 5741 5732 5734 5720 5714 5694 5689 5685 5669 5665 5660 5657 5654 5652
5618 5623 5623 5625 5626 5627 5625 5624 5625 5627 5631 5638 5643 5650 5656 5664 5673 5677 5684 5690 5697 5703 5708 5712 5716 5720 5712 5694 5708 5713 5719 5727 5741 5742 5728 5725 5725 5719 5691 5675 5672 5670 5664 5658 5656 5656 5651
5603 5611 5620 5623 5624 5623 5624 5623 5623 5624 5625 5632 5636 5644 5650 5658 5667 5675 5682 5686 5695 5702 5707 5711 5713 5720 5699 5707 5708 5712 5718 5719 5727 5732 5729 5721 5720 5712 5694 5682 5674 5672 5674 5660 5648 5651 5649
5598 5607 5614 5620 5622 5618 5618 5619 5620 5619 5624 5624 5632 5637 5645 5651 5662 5671 5678 5684 5692 5699 5705 5709 5713 5717 5699 5711 5706 5709 5713 5709 5715 5724 5721 5718 5713 5696 5685 5677 5668 5670 5671 5662 5647 5653 5655
5588 5596 5605 5613 5616 5616 5615 5615 5618 5616 5623 5621 5628 5632 5640 5645 5656 5665 5674 5681 5688 5697 5702 5706 5707 5706 5703 5697 5702 5703 5706 5706 5709 5712 5714 5706 5699 5689 5692 5691 5687 5674 5669 5662 5658 5651 5657
5577 5586 5597 5606 5613 5614 5612 5614 5612 5615 5618 5618 5622 5627 5633 5639 5649 5659 5670 5680 5680 5682 5687 5679 5684 5691 5695 5702 5703 5701 5702 5704 5706 5706 5697 5694 5694 5684 5682 5677 5687 5686 5676 5662 5654 5651 5659
5566 5578 5587 5598 5609 5609 5609 5610 5611 5612 5613 5616 5615 5624 5626 5634 5642 5652 5661 5671 5672 5677 5668 5679 5681 5689 5692 5699 5694 5695 5705 5696 5694 5687 5695 5695 5673 5670 5673 5683 5686 5684 5673 5657 5651 5651 5656
5556 5567 5578 5590 5600 5604 5604 5608 5607 5607 5608 5610 5611 5619 5620 5626 5635 5645 5656 5661 5666 5670 5668 5667 5673 5682 5685 5694 5682 5683 5694 5685 5685 5684 5694 5691 5670 5667 5675 5677 5676 5673 5673 5661 5663 5648 5649
5544 5557 5568 5579 5591 5599 5602 5602 5604 5605 5605 5605 5606 5610 5616 5619 5628 5641 5647 5650 5659 5661 5654 5654 5662 5673 5680 5684 5674 5679 5683 5682 5672 5671 5676 5664 5662 5667 5674 5667 5676 5663 5662 5660 5654 5658 5658
5535 5547 5558 5570 5581 5593 5598 5599 5600 5601 5603 5603 5601 5608 5610 5612 5621 5634 5640 5640 5650 5654 5619 5645 5657 5671 5675 5675 5675 5673 5679 5682 5666 5659 5667 5645 5657 5666 5668 5659 5661 5654 5658 5659 5655 5652 5648
5524 5536 5549 5561 5572 5587 5594 5595 5597 5597 5600 5598 5604 5603 5605 5608 5613 5625 5631 5634 5642 5622 5612 5635 5651 5654 5662 5665 5663 5670 5671 5675 5661 5659 5656 5645 5643 5651 5649 5651 5655 5654 5652 5650 5649 5649 5646
5513 5525 5538 5553 5565 5580 5590 5591 5592 5591 5594 5594 5596 5602 5597 5602 5614 5615 5619 5631 5605 5608 5626 5627 5637 5647 5656 5655 5654 5661 5663 5663 5661 5645 5647 5643 5637 5639 5645 5644 5645 5650 5648 5639 5640 5638 5649
5503 5516 5529 5544 5558 5571 5580 5588 5587 5587 5587 5586 5590 5587 5593 5598 5603 5607 5614 5620 5597 5614 5624 5627 5633 5641 5645 5650 5645 5647 5651 5653 5648 5659 5648 5645 5631 5634 5631 5637 5646 5646 5646 5639 5636 5651 5657
5492 5507 5521 5535 5548 5562 5571 5581 5581 5581 5580 5582 5583 5583 5593 5598 5601 5599 5611 5584 5606 5617 5628 5622 5627 5630 5632 5638 5645 5645 5648 5653 5653 5653 5651 5641 5627 5624 5623 5631 5635 5633 5631 5631 5629 5619 5634
5480 5498 5512 5525 5539 5552 5566 5575 5578 5577 5574 5578 5583 5584 5589 5586 5588 5598 5598 5590 5610 5615 5619 5621 5621 5628 5632 5635 5638 5641 5640 5646 5641 5643 5643 5639 5622 5619 5619 5623 5624 5627 5626 5619 5615 5604 5608
5469 5487 5503 5515 5530 5543 5560 5568 5572 5572 5570 5574 5579 5581 5578 5582 5587 5591 5574 5600 5606 5606 5611 5614 5613 5615 5629 5628 5638 5638 5641 5632 5638 5632 5640 5639 5635 5608 5612 5621 5631 5614 5619 5609 5616 5616 5622
5457 5476 5493 5507 5522 5537 5551 5563 5569 5565 5571 5564 5574 5569 5570 5576 5583 5576 5582 5598 5597 5602 5605 5609 5615 5614 5622 5627 5628 5630 5631 5628 5631 5635 5635 5631 5627 5618 5620 5607 5609 5617 5622 5622 5607 5599 5609
5443 5464 5483 5497 5513 5529 5546 5553 5559 5561 5565 5573 5567 5564 5562 5570 5563 5575 5582 5590 5593 5597 5599 5600 5605 5609 5612 5620 5616 5621 5620 5611 5619 5626 5628 5627 5623 5605 5611 5602 5600 5605 5608 5577 5574 5606 5612
5428 5452 5474 5491 5506 5522 5536 5548 5553 5561 5562 5569 5560 5535 5555 5565 5579 5583 5583 5584 5585 5595 5595 5599 5594 5603 5602 5605 5610 5606 5606 5602 5606 5612 5605 5621 5620 5624 5635 5617 5609 5585 5583 5565 5581 5593 5615
5416 5440 5464 5482 5499 5514 5529 5541 5550 5553 5557 5569 5554 5550 5571 5545 5562 5586 5588 5589 5585 5581 5590 5596 5586 5596 5602 5591 5599 5598 5599 5594 5596 5592 5602 5610 5600 5596 5597 5606 5604 5609 5600 5590 5574 5600 5607
5410 5431 5456 5475 5493 5506 5520 5530 5538 5548 5543 5558 5546 5563 5567 5574 5573 5572 5573 5577 5580 5580 5585 5587 5593 5594 5589 5587 5607 5599 5602 5599 5603 5587 5595 5594 5592 5598 5590 5591 5592 5597 5603 5599 5598 5601 5604
5407 5427 5446 5467 5484 5499 5517 5528 5533 5537 5542 5560 5561 5571 5579 5569 5569 5567 5579 5585 5583 5583 5573 5585 5590 5583 5581 5587 5592 5603 5599 5602 5603 5594 5590 5593 5579 5584 5592 5587 5583 5586 5612 5606 5606 5605 5600
5399 5421 5439 5458 5477 5492 5508 5523 5529 5533 5543 5559 5569 5581 5572 5560 5570 5579 5578 5575 5574 5576 5572 5570 5579 5582 5567 5573 5579 5579 5576 5581 5582 5578 5587 5583 5578 5571 5569 5576 5573 5612 5603 5608 5604 5600 5596
5393 5412 5432 5456 5473 5490 5502 5516 5523 5526 5533 5548 5564 5577 5570 5560 5567 5567 5565 5569 5568 5561 5558 5563 5563 5572 5567 5571 5561 5553 5554 5561 5562 5567 5573 5576 5574 5549 5562 5578 5602 5606 5590 5588 5590 5602 5596
5386 5406 5426 5448 5470 5488 5503 5514 5524 5526 5532 5539 5553 5564 5566 5561 5563 5570 5564 5562 5555 5553 5544 5543 5548 5552 5554 5554 5549 5559 5553 5565 5552 5558 5558 5563 5568 5572 5555 5566 5578 5594 5587 5584 5583 5587 5581
5380 5401 5424 5444 5465 5485 5501 5512 5521 5517 5522 5533 5540 5550 5559 5553 5558 5560 5567 5566 5562 5558 5549 5540 5538 5535 5539 5541 5547 5556 5557 5559 5555 5555 5544 5553 5552 5555 5554 5565 5584 5584 5577 5572 5571 5573 5565
5379 5400 5422 5441 5463 5484 5500 5508 5510 5514 5518 5526 5529 5544 5555 5545 5531 5547 5561 5560 5552 5557 5548 5540 5536 5531 5527 5541 5551 5544 5554 5553 5557 5564 5558 5558 5549 5545 5547 5545 5560 5571 5563 5563 5558 5549 5548
5378 5399 5420 5444 5468 5486 5497 5505 5509 5512 5514 5528 5529 5538 5543 5532 5522 5531 5533 5535 5541 5545 5547 5540 5552 5547 5550 5545 5541 5537 5541 5533 5553 5556 5555 5558 5565 5563 5562 5568 5555 5552 5550 5543 5539 5538 5530